This is the latest recevied weather packets stored in our database for station/object KQ4UPF. If no packets are shown the sender has not sent any weather packets the latest 10 day(s).
| Time | Temp. | Humidity | Pressure | Rain* | Wind** | Luminosity | Snow |
|---|---|---|---|---|---|---|---|
| 1777944560 | 15.56° C | 75% | 1013.8 hPa | 0 mm | - | 0 W/m² | - |
| 1777944258 | 16.11° C | 77% | 1014 hPa | 0 mm | - | 0 W/m² | - |
| 1777943954 | 16.11° C | 76% | 1013.9 hPa | 0 mm | - | 0 W/m² | - |
| 1777943650 | 16.11° C | 77% | 1013.8 hPa | 0 mm | - | 0 W/m² | - |
| 1777943347 | 15.56° C | 76% | 1013.9 hPa | 0 mm | - | 0 W/m² | - |
| 1777943043 | 16.11° C | 72% | 1013.9 hPa | 0 mm | - | 0 W/m² | - |
| 1777942739 | 16.67° C | 71% | 1013.5 hPa | 0 mm | - | 0 W/m² | - |
| 1777942435 | 16.67° C | 70% | 1013.6 hPa | 0 mm | - | 0 W/m² | - |
| 1777942134 | 16.67° C | 69% | 1013.3 hPa | 0 mm | - | 0 W/m² | - |
| 1777941829 | 17.22° C | 67% | 1013.3 hPa | 0 mm | - | 1 W/m² | - |
| 1777941527 | 17.22° C | 68% | 1013.6 hPa | 0 mm | - | 2 W/m² | - |
| 1777941224 | 17.78° C | 66% | 1013.5 hPa | 0 mm | - | 3 W/m² | - |
| 1777940920 | 17.78° C | 66% | 1013.4 hPa | 0 mm | - | 6 W/m² | - |
| 1777940617 | 18.33° C | 67% | 1013.2 hPa | 0 mm | - | 9 W/m² | - |
| 1777940315 | 18.89° C | 67% | 1013.3 hPa | 0 mm | - | 13 W/m² | - |
| 1777940012 | 18.89° C | 61% | 1013.4 hPa | 0 mm | - | 17 W/m² | - |
| 1777939709 | 19.44° C | 62% | 1013.4 hPa | 0 mm | - | 21 W/m² | - |
| 1777939407 | 19.44° C | 62% | 1013.1 hPa | 0 mm | - | 25 W/m² | - |
| 1777939103 | 20° C | 59% | 1013.3 hPa | 0 mm | - | 29 W/m² | - |
| 1777938801 | 20.56° C | 57% | 1013.2 hPa | 0 mm | - | 28 W/m² | - |
| 1777938497 | 20.56° C | 59% | 1013.2 hPa | 0 mm | - | 37 W/m² | - |
| 1777938195 | 21.67° C | 57% | 1013.2 hPa | 0 mm | - | 42 W/m² | - |
| 1777937891 | 22.78° C | 55% | 1013.4 hPa | 0 mm | - | 46 W/m² | - |
| 1777937587 | 22.22° C | 51% | 1013.2 hPa | 0 mm | - | 53 W/m² | - |
| 1777937284 | 21.67° C | 47% | 1013.4 hPa | 0 mm | - | 57 W/m² | - |
* Rain latest hour (hover to see other rain measurements)
** Current wind speed in m/s (hover to see current wind gust speed)